QPF
0.00 0.00 0.00 0.00 0.00 0.00 0.00 0.00 0.00 0.00 0.00 0.00 0.00 0.00 0.00 0.00 0.00 0.00 0.00 0.00 0.00 0.00 0.00 0.00 0.00 0.00 0.00 0.00 0.00 0.00 0.00 0.00 0.00 0.00 0.01 0.01 0.01 0.02 0.03 0.03 0.04 0.04 0.02
0.00 0.00 0.00 0.00 0.00 0.00 0.00 0.00 0.00 0.00 0.00 0.00 0.00 0.00 0.00 0.00 0.00 0.00 0.00 0.00 0.00 0.00 0.00 0.00 0.00 0.00 0.00 0.00 0.00 0.00 0.00 0.00 0.00 0.00 0.01 0.01 0.01 0.01 0.01 0.01 0.03 0.05 0.02
0.00 0.00 0.00 0.00 0.00 0.00 0.00 0.00 0.00 0.00 0.00 0.00 0.00 0.00 0.00 0.00 0.00 0.00 0.00 0.00 0.00 0.00 0.00 0.00 0.00 0.00 0.00 0.00 0.00 0.00 0.00 0.00 0.01 0.01 0.03 0.03 0.01 0.01 0.01 0.01 0.01 0.02 0.01
0.00 0.00 0.00 0.00 0.00 0.00 0.00 0.00 0.00 0.00 0.00 0.00 0.00 0.00 0.00 0.00 0.00 0.00 0.00 0.00 0.00 0.00 0.00 0.00 0.00 0.00 0.00 0.00 0.00 0.00 0.00 0.01 0.01 0.01 0.03 0.02 0.01 0.01 0.00 0.01 0.01 0.01 0.01
0.00 0.00 0.00 0.00 0.00 0.00 0.00 0.00 0.00 0.00 0.00 0.00 0.00 0.00 0.00 0.00 0.00 0.00 0.00 0.00 0.00 0.01 0.01 0.01 0.01 0.00 0.00 0.00 0.00 0.00 0.00 0.01 0.01 0.01 0.01 0.01 0.05 0.02 0.01 0.00 0.00 0.00 0.01
0.00 0.00 0.00 0.00 0.00 0.00 0.00 0.00 0.00 0.00 0.00 0.00 0.00 0.00 0.00 0.00 0.00 0.00 0.00 0.01 0.01 0.01 0.01 0.01 0.01 0.01 0.00 0.00 0.00 0.00 0.00 0.00 0.01 0.00 0.00 0.01 0.03 0.02 0.01 0.01 0.00 0.00 0.00
0.00 0.00 0.00 0.00 0.00 0.00 0.00 0.00 0.00 0.00 0.00 0.00 0.00 0.00 0.00 0.01 0.01 0.01 0.01 0.01 0.01 0.01 0.01 0.01 0.01 0.00 0.00 0.00 0.00 0.00 0.00 0.00 0.01 0.02 0.01 0.01 0.02 0.01 0.02 0.02 0.01 0.00 0.00
0.00 0.00 0.00 0.00 0.00 0.00 0.00 0.00 0.00 0.00 0.00 0.00 0.00 0.00 0.00 0.00 0.01 0.01 0.01 0.01 0.01 0.01 0.00 0.00 0.00 0.00 0.00 0.00 0.00 0.00 0.00 0.00 0.01 0.02 0.02 0.02 0.02 0.01 0.04 0.07 0.04 0.02 0.01
0.00 0.00 0.00 0.01 0.01 0.01 0.01 0.00 0.00 0.00 0.00 0.00 0.00 0.00 0.00 0.00 0.00 0.00 0.00 0.00 0.00 0.00 0.00 0.00 0.00 0.00 0.00 0.00 0.00 0.00 0.00 0.00 0.01 0.02 0.01 0.01 0.01 0.01 0.06 0.14 0.14 0.08 0.05
0.00 0.00 0.01 0.01 0.02 0.02 0.01 0.01 0.01 0.01 0.01 0.00 0.00 0.00 0.00 0.00 0.00 0.00 0.00 0.00 0.00 0.00 0.00 0.00 0.00 0.01 0.00 0.00 0.00 0.00 0.00 0.00 0.00 0.00 0.00 0.00 0.01 0.03 0.10 0.15 0.17 0.17 0.12
0.00 0.01 0.01 0.01 0.02 0.02 0.02 0.02 0.02 0.02 0.02 0.02 0.01 0.01 0.01 0.00 0.00 0.00 0.00 0.00 0.00 0.01 0.01 0.01 0.02 0.02 0.03 0.03 0.02 0.02 0.03 0.02 0.01 0.01 0.00 0.00 0.01 0.03 0.08 0.14 0.17 0.16 0.15
0.00 0.01 0.01 0.01 0.02 0.02 0.02 0.02 0.04 0.04 0.05 0.05 0.04 0.04 0.04 0.04 0.02 0.01 0.00 0.00 0.01 0.01 0.02 0.03 0.05 0.07 0.08 0.09 0.09 0.09 0.06 0.04 0.03 0.02 0.01 0.01 0.02 0.03 0.05 0.10 0.16 0.16 0.14
0.01 0.00 0.01 0.01 0.01 0.02 0.03 0.02 0.04 0.05 0.06 0.06 0.05 0.07 0.09 0.09 0.06 0.04 0.03 0.02 0.01 0.02 0.04 0.08 0.14 0.11 0.12 0.15 0.17 0.14 0.10 0.08 0.05 0.04 0.04 0.04 0.05 0.05 0.06 0.08 0.12 0.15 0.16
0.01 0.01 0.01 0.01 0.01 0.01 0.02 0.02 0.03 0.03 0.04 0.05 0.06 0.07 0.10 0.10 0.08 0.08 0.08 0.06 0.05 0.05 0.05 0.10 0.18 0.20 0.22 0.23 0.20 0.18 0.19 0.14 0.08 0.07 0.07 0.07 0.09 0.09 0.09 0.08 0.10 0.13 0.15
0.02 0.03 0.02 0.02 0.02 0.01 0.02 0.03 0.02 0.02 0.02 0.03 0.05 0.07 0.10 0.11 0.10 0.12 0.11 0.10 0.09 0.08 0.08 0.11 0.17 0.19 0.24 0.28 0.24 0.19 0.18 0.16 0.12 0.09 0.07 0.07 0.10 0.11 0.10 0.09 0.10 0.13 0.15
0.04 0.04 0.03 0.03 0.03 0.02 0.02 0.01 0.01 0.01 0.02 0.03 0.05 0.07 0.11 0.13 0.15 0.16 0.15 0.14 0.12 0.12 0.15 0.18 0.20 0.22 0.24 0.27 0.21 0.17 0.16 0.19 0.16 0.11 0.09 0.09 0.10 0.11 0.09 0.09 0.11 0.14 0.17
0.04 0.03 0.04 0.04 0.04 0.03 0.02 0.03 0.02 0.02 0.03 0.05 0.08 0.11 0.16 0.18 0.19 0.21 0.19 0.17 0.17 0.21 0.22 0.22 0.21 0.24 0.22 0.22 0.20 0.20 0.19 0.18 0.14 0.12 0.12 0.10 0.08 0.06 0.05 0.06 0.08 0.11 0.14
0.03 0.03 0.03 0.03 0.03 0.02 0.02 0.02 0.02 0.03 0.05 0.09 0.12 0.16 0.18 0.19 0.22 0.24 0.24 0.23 0.24 0.25 0.23 0.21 0.20 0.22 0.24 0.26 0.27 0.24 0.23 0.20 0.16 0.15 0.13 0.09 0.07 0.04 0.04 0.04 0.05 0.08 0.11
0.04 0.03 0.02 0.02 0.02 0.02 0.02 0.02 0.03 0.05 0.09 0.14 0.20 0.24 0.27 0.27 0.26 0.25 0.25 0.24 0.24 0.22 0.17 0.13 0.13 0.14 0.17 0.18 0.17 0.17 0.17 0.15 0.13 0.11 0.09 0.07 0.07 0.05 0.05 0.05 0.02 0.03 0.06
0.02 0.01 0.01 0.00 0.00 0.00 0.01 0.05 0.09 0.13 0.17 0.23 0.30 0.33 0.34 0.33 0.32 0.30 0.25 0.21 0.18 0.15 0.12 0.11 0.09 0.09 0.08 0.08 0.07 0.08 0.08 0.08 0.07 0.06 0.03 0.03 0.03 0.03 0.02 0.03 0.03 0.01 0.02
0.01 0.00 0.00 0.00 0.00 0.00 0.01 0.04 0.07 0.09 0.14 0.21 0.26 0.30 0.33 0.35 0.34 0.31 0.25 0.20 0.16 0.13 0.10 0.07 0.06 0.04 0.03 0.04 0.04 0.03 0.03 0.03 0.03 0.03 0.02 0.01 0.01 0.01 0.00 0.01 0.01 0.02 0.02
0.00 0.00 0.00 0.00 0.00 0.00 0.01 0.02 0.04 0.06 0.08 0.14 0.21 0.27 0.32 0.35 0.37 0.36 0.29 0.22 0.16 0.12 0.10 0.06 0.04 0.03 0.02 0.02 0.01 0.01 0.01 0.01 0.01 0.00 0.00 0.00 0.01 0.00 0.00 0.00 0.00 0.01 0.01
0.00 0.00 0.00 0.00 0.00 0.00 0.01 0.01 0.02 0.03 0.05 0.06 0.09 0.14 0.20 0.23 0.24 0.24 0.22 0.18 0.15 0.13 0.10 0.09 0.06 0.04 0.02 0.01 0.01 0.00 0.00 0.00 0.00 0.00 0.00 0.00 0.00 0.00 0.00 0.00 0.00 0.00 0.00
0.00 0.00 0.00 0.00 0.00 0.00 0.00 0.01 0.01 0.02 0.03 0.04 0.06 0.08 0.10 0.12 0.14 0.16 0.15 0.15 0.13 0.12 0.10 0.08 0.07 0.07 0.04 0.02 0.01 0.00 0.00 0.00 0.00 0.00 0.00 0.00 0.00 0.00 0.00 0.00 0.00 0.00 0.00
0.00 0.00 0.00 0.00 0.00 0.00 0.00 0.00 0.00 0.00 0.01 0.02 0.02 0.03 0.04 0.05 0.07 0.10 0.11 0.11 0.12 0.11 0.09 0.08 0.07 0.07 0.06 0.03 0.02 0.01 0.01 0.00 0.00 0.00 0.00 0.00 0.00 0.00 0.00 0.00 0.00 0.00 0.00
0.00 0.00 0.00 0.00 0.00 0.00 0.00 0.00 0.00 0.00 0.00 0.00 0.01 0.01 0.01 0.02 0.03 0.05 0.07 0.09 0.11 0.11 0.11 0.10 0.08 0.06 0.06 0.06 0.04 0.02 0.01 0.00 0.00 0.00 0.00 0.00 0.00 0.00 0.00 0.00 0.00 0.00 0.00
MSLP
1009.24 1009.57 1010.12 1010.82 1011.52 1012.12 1012.52 1012.71 1012.71 1012.60 1012.50 1012.52 1012.70 1013.05 1013.54 1014.09 1014.60 1015.00 1015.24 1015.34 1015.34 1015.30 1015.28 1015.34 1015.47 1015.66 1015.88 1016.07 1016.21 1016.28 1016.29 1016.27 1016.26 1016.28 1016.35 1016.47 1016.62 1016.78 1016.93 1017.05 1017.16 1017.25 1017.36
1009.21 1009.62 1010.24 1010.98 1011.71 1012.31 1012.71 1012.89 1012.88 1012.78 1012.68 1012.70 1012.88 1013.22 1013.70 1014.21 1014.69 1015.05 1015.27 1015.35 1015.34 1015.31 1015.32 1015.41 1015.57 1015.80 1016.04 1016.25 1016.40 1016.47 1016.48 1016.45 1016.44 1016.47 1016.55 1016.69 1016.86 1017.04 1017.21 1017.35 1017.46 1017.55 1017.64
1009.23 1009.72 1010.39 1011.15 1011.89 1012.50 1012.91 1013.11 1013.13 1013.06 1012.99 1013.02 1013.19 1013.51 1013.93 1014.38 1014.78 1015.07 1015.23 1015.28 1015.27 1015.26 1015.31 1015.44 1015.66 1015.93 1016.20 1016.42 1016.56 1016.62 1016.61 1016.57 1016.55 1016.58 1016.68 1016.83 1017.03 1017.24 1017.44 1017.60 1017.72 1017.82 1017.91
1009.34 1009.87 1010.56 1011.33 1012.07 1012.69 1013.12 1013.35 1013.43 1013.40 1013.38 1013.43 1013.60 1013.87 1014.22 1014.57 1014.87 1015.07 1015.16 1015.18 1015.17 1015.19 1015.28 1015.47 1015.74 1016.05 1016.34 1016.57 1016.70 1016.73 1016.69 1016.63 1016.59 1016.62 1016.73 1016.91 1017.14 1017.38 1017.61 1017.81 1017.96 1018.08 1018.18
1009.52 1010.06 1010.75 1011.50 1012.23 1012.84 1013.29 1013.57 1013.70 1013.74 1013.77 1013.85 1014.01 1014.24 1014.51 1014.76 1014.96 1015.07 1015.10 1015.08 1015.07 1015.13 1015.27 1015.51 1015.83 1016.17 1016.47 1016.69 1016.79 1016.79 1016.72 1016.63 1016.58 1016.60 1016.72 1016.93 1017.19 1017.47 1017.74 1017.97 1018.16 1018.31 1018.44
1009.75 1010.28 1010.93 1011.64 1012.33 1012.93 1013.39 1013.70 1013.88 1013.98 1014.06 1014.17 1014.33 1014.52 1014.73 1014.90 1015.02 1015.06 1015.04 1015.01 1015.01 1015.10 1015.28 1015.57 1015.92 1016.27 1016.57 1016.76 1016.83 1016.80 1016.69 1016.58 1016.51 1016.53 1016.66 1016.89 1017.18 1017.50 1017.80 1018.08 1018.30 1018.49 1018.66
1009.97 1010.46 1011.06 1011.71 1012.35 1012.91 1013.36 1013.68 1013.90 1014.05 1014.17 1014.31 1014.47 1014.65 1014.81 1014.94 1015.00 1015.00 1014.97 1014.94 1014.96 1015.08 1015.31 1015.62 1015.98 1016.33 1016.61 1016.76 1016.80 1016.72 1016.59 1016.45 1016.38 1016.40 1016.54 1016.79 1017.10 1017.45 1017.79 1018.10 1018.36 1018.58 1018.78
1010.13 1010.57 1011.10 1011.69 1012.26 1012.77 1013.19 1013.50 1013.73 1013.91 1014.06 1014.22 1014.39 1014.56 1014.71 1014.82 1014.87 1014.87 1014.84 1014.84 1014.90 1015.05 1015.30 1015.63 1015.98 1016.31 1016.55 1016.67 1016.66 1016.55 1016.40 1016.25 1016.17 1016.20 1016.36 1016.62 1016.96 1017.32 1017.68 1018.01 1018.29 1018.54 1018.77
1010.21 1010.60 1011.07 1011.58 1012.08 1012.53 1012.89 1013.18 1013.39 1013.56 1013.72 1013.89 1014.07 1014.25 1014.40 1014.52 1014.59 1014.62 1014.64 1014.68 1014.78 1014.96 1015.23 1015.55 1015.88 1016.17 1016.37 1016.45 1016.41 1016.27 1016.10 1015.96 1015.88 1015.93 1016.10 1016.37 1016.72 1017.10 1017.47 1017.81 1018.11 1018.37 1018.61
1010.24 1010.59 1011.00 1011.44 1011.87 1012.24 1012.54 1012.77 1012.94 1013.09 1013.23 1013.39 1013.56 1013.75 1013.92 1014.07 1014.18 1014.25 1014.32 1014.41 1014.56 1014.76 1015.04 1015.35 1015.65 1015.90 1016.06 1016.10 1016.03 1015.88 1015.71 1015.57 1015.52 1015.58 1015.76 1016.05 1016.41 1016.79 1017.16 1017.51 1017.81 1018.08 1018.33
1010.28 1010.59 1010.96 1011.33 1011.68 1011.98 1012.20 1012.36 1012.47 1012.56 1012.67 1012.80 1012.96 1013.14 1013.33 1013.50 1013.65 1013.77 1013.90 1014.04 1014.21 1014.44 1014.71 1015.00 1015.28 1015.49 1015.61 1015.63 1015.55 1015.40 1015.24 1015.12 1015.09 1015.17 1015.37 1015.66 1016.02 1016.41 1016.79 1017.13 1017.44 1017.71 1017.97
1010.42 1010.70 1011.02 1011.33 1011.61 1011.82 1011.96 1012.03 1012.07 1012.09 1012.14 1012.22 1012.35 1012.51 1012.69 1012.88 1013.05 1013.21 1013.37 1013.55 1013.75 1013.99 1014.25 1014.53 1014.77 1014.96 1015.06 1015.07 1014.99 1014.86 1014.72 1014.63 1014.61 1014.71 1014.92 1015.22 1015.59 1015.98 1016.36 1016.71 1017.02 1017.31 1017.57
1010.72 1010.97 1011.24 1011.49 1011.69 1011.81 1011.86 1011.85 1011.80 1011.75 1011.72 1011.74 1011.81 1011.93 1012.09 1012.26 1012.44 1012.61 1012.79 1012.98 1013.19 1013.43 1013.68 1013.94 1014.17 1014.34 1014.44 1014.45 1014.39 1014.29 1014.18 1014.11 1014.12 1014.23 1014.45 1014.75 1015.11 1015.50 1015.89 1016.25 1016.58 1016.89 1017.17
1011.22 1011.43 1011.64 1011.81 1011.92 1011.96 1011.92 1011.82 1011.69 1011.56 1011.45 1011.40 1011.40 1011.47 1011.57 1011.70 1011.85 1012.01 1012.18 1012.36 1012.56 1012.79 1013.04 1013.28 1013.50 1013.68 1013.79 1013.82 1013.80 1013.73 1013.66 1013.62 1013.64 1013.75 1013.96 1014.25 1014.60 1014.99 1015.38 1015.76 1016.12 1016.45 1016.77
1011.91 1012.05 1012.18 1012.26 1012.28 1012.23 1012.11 1011.93 1011.73 1011.52 1011.34 1011.21 1011.14 1011.12 1011.16 1011.23 1011.33 1011.45 1011.58 1011.74 1011.92 1012.13 1012.37 1012.60 1012.83 1013.01 1013.15 1013.22 1013.23 1013.21 1013.17 1013.15 1013.18 1013.28 1013.46 1013.73 1014.06 1014.43 1014.82 1015.22 1015.60 1015.98 1016.33
1012.70 1012.75 1012.77 1012.76 1012.69 1012.55 1012.36 1012.12 1011.85 1011.58 1011.34 1011.14 1010.99 1010.90 1010.86 1010.85 1010.89 1010.95 1011.04 1011.16 1011.32 1011.51 1011.72 1011.95 1012.18 1012.39 1012.55 1012.66 1012.72 1012.73 1012.72 1012.71 1012.74 1012.82 1012.96 1013.18 1013.47 1013.81 1014.18 1014.58 1014.99 1015.40 1015.81
1013.47 1013.42 1013.33 1013.22 1013.05 1012.84 1012.59 1012.31 1012.00 1011.69 1011.40 1011.14 1010.93 1010.76 1010.64 1010.57 1010.54 1010.54 1010.59 1010.67 1010.79 1010.96 1011.16 1011.38 1011.61 1011.83 1012.01 1012.16 1012.25 1012.29 1012.31 1012.31 1012.32 1012.36 1012.46 1012.62 1012.84 1013.12 1013.46 1013.85 1014.26 1014.70 1015.15
1014.12 1013.95 1013.76 1013.55 1013.32 1013.05 1012.76 1012.45 1012.12 1011.79 1011.47 1011.17 1010.90 1010.67 1010.49 1010.36 1010.28 1010.24 1010.25 1010.30 1010.40 1010.53 1010.71 1010.92 1011.13 1011.35 1011.55 1011.71 1011.82 1011.89 1011.92 1011.92 1011.91 1011.92 1011.96 1012.04 1012.19 1012.40 1012.68 1013.02 1013.42 1013.87 1014.34
1014.54 1014.29 1014.02 1013.74 1013.45 1013.15 1012.85 1012.53 1012.20 1011.86 1011.52 1011.19 1010.89 1010.62 1010.40 1010.23 1010.12 1010.05 1010.04 1010.07 1010.15 1010.27 1010.41 1010.59 1010.78 1010.97 1011.15 1011.31 1011.43 1011.51 1011.54 1011.54 1011.52 1011.49 1011.48 1011.49 1011.56 1011.68 1011.88 1012.16 1012.52 1012.94 1013.42
1014.72 1014.41 1014.09 1013.77 1013.46 1013.16 1012.86 1012.55 1012.23 1011.89 1011.55 1011.21 1010.89 1010.60 1010.37 1010.18 1010.06 1010.00 1009.99 1010.02 1010.08 1010.17 1010.28 1010.41 1010.55 1010.69 1010.83 1010.95 1011.06 1011.14 1011.18 1011.18 1011.15 1011.10 1011.04 1011.00 1010.98 1011.03 1011.14 1011.34 1011.63 1012.00 1012.45
1014.68 1014.35 1014.01 1013.70 1013.40 1013.11 1012.83 1012.55 1012.25 1011.92 1011.58 1011.24 1010.92 1010.63 1010.39 1010.22 1010.12 1010.08 1010.08 1010.12 1010.18 1010.24 1010.31 1010.37 1010.44 1010.50 1010.57 1010.65 1010.72 1010.78 1010.81 1010.82 1010.80 1010.75 1010.67 1010.59 1010.52 1010.50 1010.53 1010.64 1010.85 1011.15 1011.55
1014.49 1014.17 1013.87 1013.58 1013.31 1013.06 1012.82 1012.56 1012.28 1011.97 1011.64 1011.30 1010.98 1010.70 1010.49 1010.34 1010.27 1010.27 1010.31 1010.36 1010.42 1010.46 1010.47 1010.46 1010.43 1010.40 1010.38 1010.38 1010.40 1010.43 1010.46 1010.48 1010.48 1010.45 1010.38 1010.29 1010.20 1010.13 1010.09 1010.13 1010.26 1010.48 1010.81
1014.24 1013.97 1013.71 1013.47 1013.25 1013.04 1012.84 1012.61 1012.35 1012.06 1011.73 1011.40 1011.09 1010.82 1010.63 1010.52 1010.50 1010.53 1010.61 1010.68 1010.74 1010.75 1010.70 1010.61 1010.49 1010.36 1010.24 1010.16 1010.11 1010.11 1010.13 1010.17 1010.19 1010.19 1010.16 1010.10 1010.01 1009.92 1009.85 1009.84 1009.89 1010.04 1010.28
1014.02 1013.80 1013.60 1013.40 1013.23 1013.07 1012.89 1012.69 1012.44 1012.15 1011.83 1011.51 1011.20 1010.96 1010.79 1010.71 1010.73 1010.80 1010.91 1011.00 1011.05 1011.04 1010.94 1010.78 1010.57 1010.34 1010.13 1009.96 1009.86 1009.82 1009.83 1009.87 1009.93 1009.97 1009.99 1009.96 1009.91 1009.83 1009.77 1009.72 1009.74 1009.82 1009.99
1013.87 1013.70 1013.53 1013.38 1013.24 1013.10 1012.94 1012.75 1012.52 1012.24 1011.92 1011.60 1011.30 1011.06 1010.91 1010.86 1010.89 1010.99 1011.12 1011.22 1011.27 1011.24 1011.10 1010.89 1010.61 1010.31 1010.03 1009.79 1009.63 1009.55 1009.55 1009.59 1009.67 1009.75 1009.81 1009.84 1009.83 1009.79 1009.74 1009.71 1009.71 1009.77 1009.89
1013.79 1013.64 1013.50 1013.36 1013.23 1013.10 1012.95 1012.77 1012.53 1012.26 1011.94 1011.62 1011.32 1011.09 1010.94 1010.89 1010.93 1011.04 1011.16 1011.27 1011.32 1011.27 1011.12 1010.88 1010.57 1010.23 1009.90 1009.63 1009.43 1009.32 1009.29 1009.33 1009.41 1009.51 1009.59 1009.66 1009.69 1009.70 1009.70 1009.70 1009.72 1009.78 1009.87
Thickness
5848 5842 5828 5823 5819 5815 5813 5811 5810 5808 5806 5803 5799 5795 5792 5789 5785 5782 5779 5777 5774 5772 5770 5768 5766 5764 5762 5760 5759 5758 5757 5755 5753 5752 5750 5749 5748 5747 5746 5745 5746 5746 5742
5850 5840 5826 5822 5818 5814 5812 5810 5808 5806 5803 5800 5797 5794 5790 5787 5784 5781 5779 5776 5773 5771 5769 5767 5765 5763 5761 5759 5757 5756 5755 5754 5752 5751 5749 5748 5746 5745 5744 5744 5745 5745 5741
5847 5837 5825 5819 5816 5812 5810 5807 5805 5803 5800 5797 5794 5791 5788 5785 5782 5779 5776 5774 5772 5770 5768 5766 5764 5762 5760 5758 5756 5754 5753 5752 5751 5750 5749 5751 5747 5743 5743 5742 5742 5741 5740
5843 5834 5825 5816 5813 5810 5807 5805 5802 5800 5797 5794 5791 5789 5786 5783 5780 5777 5775 5772 5771 5769 5767 5765 5763 5761 5759 5756 5754 5753 5751 5750 5749 5749 5751 5752 5749 5742 5741 5740 5740 5739 5738
5839 5831 5821 5813 5809 5806 5803 5801 5798 5796 5793 5791 5788 5786 5783 5781 5778 5776 5773 5771 5769 5767 5766 5764 5761 5759 5758 5755 5753 5751 5750 5749 5748 5749 5753 5750 5748 5741 5739 5739 5738 5737 5737
5834 5828 5818 5809 5805 5802 5799 5797 5795 5792 5789 5787 5785 5782 5781 5778 5776 5774 5772 5769 5767 5765 5764 5762 5760 5758 5756 5754 5752 5750 5748 5748 5748 5754 5752 5750 5748 5741 5739 5737 5736 5736 5735
5832 5827 5815 5806 5802 5798 5795 5793 5791 5789 5786 5783 5781 5779 5777 5775 5773 5771 5769 5767 5765 5763 5761 5759 5757 5756 5754 5752 5750 5749 5747 5747 5750 5754 5752 5750 5747 5741 5739 5737 5735 5734 5733
5830 5825 5813 5803 5799 5795 5793 5790 5787 5785 5783 5780 5778 5776 5774 5772 5770 5768 5766 5764 5762 5761 5759 5757 5755 5753 5752 5750 5749 5747 5746 5745 5749 5753 5751 5751 5746 5741 5738 5736 5735 5734 5732
5828 5823 5812 5805 5798 5793 5790 5788 5785 5783 5780 5777 5775 5772 5770 5769 5767 5765 5763 5761 5759 5758 5756 5754 5752 5751 5749 5747 5746 5745 5744 5743 5747 5752 5752 5750 5745 5741 5738 5736 5734 5733 5732
5822 5819 5811 5807 5802 5796 5792 5786 5783 5780 5778 5775 5772 5769 5767 5765 5763 5761 5759 5758 5756 5754 5753 5751 5749 5748 5746 5745 5744 5743 5742 5741 5745 5753 5752 5750 5744 5740 5738 5737 5735 5733 5732
5812 5812 5809 5806 5800 5797 5793 5788 5781 5777 5774 5771 5768 5765 5763 5764 5764 5761 5758 5756 5752 5751 5749 5748 5747 5745 5744 5743 5742 5740 5739 5743 5748 5752 5752 5749 5743 5739 5737 5736 5736 5734 5733
5805 5805 5804 5803 5798 5795 5791 5787 5782 5779 5776 5771 5770 5767 5763 5762 5761 5760 5758 5752 5749 5747 5747 5746 5744 5743 5742 5744 5742 5739 5741 5744 5748 5750 5749 5745 5741 5737 5736 5735 5735 5734 5733
5803 5801 5799 5797 5793 5790 5787 5784 5780 5777 5774 5770 5767 5763 5760 5758 5756 5755 5753 5750 5747 5745 5746 5747 5745 5744 5744 5744 5744 5742 5743 5745 5748 5749 5749 5744 5740 5737 5735 5735 5734 5733 5733
5797 5794 5793 5788 5784 5781 5779 5778 5774 5771 5769 5766 5762 5759 5756 5753 5751 5750 5747 5748 5747 5746 5746 5747 5745 5746 5744 5743 5742 5742 5742 5743 5746 5746 5745 5742 5738 5736 5734 5734 5733 5733 5732
5786 5783 5780 5777 5774 5771 5769 5767 5767 5764 5762 5761 5756 5753 5750 5748 5746 5745 5743 5741 5742 5744 5744 5744 5745 5744 5743 5741 5739 5740 5740 5741 5743 5744 5744 5741 5738 5736 5734 5733 5733 5733 5732
5773 5771 5770 5767 5764 5762 5760 5759 5758 5757 5755 5753 5751 5748 5744 5741 5740 5737 5736 5737 5738 5738 5740 5741 5742 5741 5741 5740 5739 5740 5740 5740 5740 5741 5741 5741 5738 5736 5735 5734 5733 5732 5732
5762 5762 5760 5759 5757 5754 5753 5752 5753 5751 5750 5747 5744 5741 5737 5733 5732 5730 5730 5731 5734 5734 5734 5735 5737 5738 5738 5738 5738 5739 5739 5739 5740 5740 5740 5739 5739 5737 5736 5734 5733 5732 5731
5754 5752 5750 5751 5748 5746 5745 5744 5745 5743 5741 5740 5737 5734 5730 5726 5723 5722 5723 5726 5728 5728 5729 5731 5732 5733 5733 5734 5734 5736 5737 5737 5738 5739 5738 5738 5738 5740 5738 5736 5734 5733 5731
5743 5741 5740 5738 5737 5737 5738 5737 5737 5735 5733 5732 5729 5727 5723 5720 5716 5715 5717 5720 5722 5723 5725 5728 5731 5729 5728 5729 5731 5733 5734 5735 5736 5738 5737 5738 5738 5738 5739 5737 5735 5733 5731
5734 5731 5729 5728 5727 5728 5730 5729 5728 5727 5726 5724 5722 5719 5716 5713 5710 5710 5713 5715 5717 5719 5720 5722 5724 5724 5724 5726 5729 5733 5733 5735 5736 5737 5737 5739 5739 5739 5739 5739 5737 5735 5733
5724 5721 5718 5716 5716 5716 5717 5716 5715 5716 5716 5715 5714 5711 5708 5706 5706 5705 5707 5708 5709 5711 5715 5718 5719 5719 5719 5723 5721 5723 5728 5732 5734 5734 5735 5738 5740 5740 5740 5740 5738 5739 5738
5714 5711 5710 5707 5706 5705 5704 5704 5704 5704 5705 5704 5702 5700 5699 5699 5699 5700 5700 5700 5701 5704 5708 5709 5710 5712 5716 5718 5715 5716 5718 5723 5727 5732 5734 5734 5736 5739 5740 5740 5740 5738 5738
5707 5704 5702 5698 5696 5694 5693 5695 5695 5695 5696 5694 5691 5691 5689 5690 5690 5692 5692 5695 5696 5696 5698 5700 5702 5702 5705 5710 5712 5711 5711 5715 5725 5728 5729 5732 5733 5735 5738 5740 5739 5739 5738
5701 5699 5695 5691 5687 5684 5683 5682 5680 5679 5679 5679 5679 5680 5680 5681 5682 5683 5684 5686 5687 5688 5690 5693 5698 5697 5697 5701 5706 5707 5709 5713 5713 5719 5722 5728 5729 5730 5734 5737 5738 5738 5737
5695 5692 5688 5683 5678 5675 5671 5669 5668 5669 5669 5670 5669 5669 5669 5671 5671 5672 5674 5675 5676 5678 5680 5684 5688 5690 5692 5694 5699 5702 5703 5704 5705 5708 5714 5720 5724 5728 5731 5731 5734 5737 5737
5688 5685 5680 5674 5669 5666 5663 5660 5657 5655 5655 5655 5654 5656 5658 5660 5660 5661 5662 5663 5665 5667 5669 5673 5677 5681 5684 5688 5691 5697 5698 5700 5702 5705 5707 5711 5717 5724 5727 5729 5731 5733 5734